CST,Max TemperatureF,Mean TemperatureF,Min TemperatureF,Max Dew PointF,MeanDew PointF,Min DewpointF,Max Humidity, Mean Humidity, Min Humidity, Max Sea Level PressureIn, Mean Sea Level PressureIn, Min Sea Level PressureIn, Max VisibilityMiles, Mean VisibilityMiles, Min VisibilityMiles, Max Wind SpeedMPH, Mean Wind SpeedMPH, Max Gust SpeedMPH,PrecipitationIn, CloudCover, Events, WindDirDegrees
2012-11-1,57,46,34,41,32,24,76,58,36,30.01,29.94,29.88,10,10,10,9,7,,0.00,3,,256
2012-11-2,53,43,34,38,33,31,86,67,44,30.09,30.03,29.91,10,10,4,12,8,,0.00,0,,38
2012-11-3,48,42,35,40,36,30,94,75,58,30.20,30.10,30.03,10,10,7,16,10,24,0.00,6,Thunderstorm,58
2012-11-4,48,38,29,36,33,28,98,80,59,30.26,30.21,30.17,10,8,2,9,4,,0.00,2,,22
2012-11-5,44,42,39,39,36,34,89,81,73,30.17,30.12,30.08,10,9,7,13,5,,0.00,7,Rain,104
2012-11-6,46,42,39,43,39,35,96,89,72,30.08,29.99,29.92,10,6,1,13,4,,0.00,7,Rain,241
2012-11-7,49,42,35,41,39,33,95,85,71,30.19,30.06,29.91,10,9,4,17,8,22,0.01,6,Rain,330
2012-11-8,53,42,30,40,36,29,99,80,59,30.24,30.16,30.07,10,8,2,14,4,17,0.00,0,,164
2012-11-9,67,54,41,54,46,37,88,73,57,30.09,30.01,29.94,10,10,10,24,12,28,0.00,1,,165
2012-11-10,74,64,54,53,50,45,84,63,41,30.02,29.98,29.92,10,10,10,25,16,32,0.00,0,Rain,166
2012-11-11,67,53,39,59,51,37,94,78,64,30.06,29.93,29.79,10,9,3,34,20,47,0.25,5,Rain,198
2012-11-12,42,36,30,37,27,23,93,70,51,30.42,30.28,30.07,10,10,10,22,15,28,0.31,2,Rain,271
2012-11-13,45,36,28,28,25,20,90,67,37,30.53,30.48,30.43,10,7,2,7,4,,0.02,0,,173
2012-11-14,46,38,30,30,28,26,89,72,46,30.50,30.44,30.37,10,6,1,8,3,,0.01,0,,122
2012-11-15,49,38,28,34,29,24,94,73,37,30.41,30.36,30.33,10,9,2,5,1,,0.00,0,,131
2012-11-16,55,42,30,35,31,28,91,67,38,30.47,30.43,30.38,10,9,3,7,2,,0.00,0,,123
2012-11-17,55,43,31,37,32,28,91,71,43,30.52,30.46,30.41,10,9,4,13,4,,0.00,0,,125
2012-11-18,58,45,32,40,35,30,93,68,46,30.41,30.36,30.30,10,10,5,10,5,,0.00,0,,141
2012-11-19,55,48,40,43,39,34,83,69,60,30.30,30.22,30.12,10,10,10,12,8,,0.00,4,,164
2012-11-20,59,50,40,51,46,37,95,82,67,30.20,30.13,30.08,10,9,0,8,3,,0.00,2,Fog,290
2012-11-21,58,48,39,53,45,38,99,93,77,30.28,30.21,30.15,7,2,0,10,4,,0.00,3,Fog-Rain,181
2012-11-22,64,54,43,52,47,42,95,82,59,30.15,30.03,29.93,10,7,2,21,12,25,0.00,2,Rain-Thunderstorm,179
2012-11-23,49,38,28,41,28,20,82,67,50,30.32,30.23,30.08,10,10,10,23,14,31,0.00,1,,301
2012-11-24,36,30,23,26,21,18,82,73,57,30.33,30.22,30.01,10,10,10,13,8,,0.00,0,,241
2012-11-25,53,42,32,35,30,25,83,66,43,30.07,29.96,29.91,10,10,7,14,10,,0.00,0,,250
2012-11-26,42,36,28,30,27,21,87,72,54,30.36,30.21,30.06,10,10,10,21,9,24,0.00,4,,12
2012-11-27,37,29,21,25,22,18,90,77,52,30.45,30.36,30.32,10,10,7,10,6,,0.00,0,,287
2012-11-28,47,36,25,31,26,22,90,72,50,30.44,30.36,30.31,10,9,7,9,4,,0.00,0,,184
2012-11-29,53,42,32,36,32,26,86,69,49,30.31,30.19,30.10,10,10,7,21,11,25,0.00,0,,163
2012-11-30,61,50,38,44,38,32,87,68,48,30.12,30.10,30.06,10,10,10,15,11,,0.00,0,,174